Time,TemperatureF,DewpointF,PressureIn,WindDirection,WindDirectionDegrees,WindSpeedMPH,WindSpeedGustMPH,Humidity,HourlyPrecipIn,Conditions,Clouds,dailyrainin,SolarRadiationWatts/m^2,SoftwareType,DateUTC
2013-06-04 06:02:00,61.2,54.1,29.94,NNW,337,0.8,0.8,78,-99.99,,,0.00,14,,2013-06-04 04:02:00,
2013-06-04 06:07:00,60.8,53.4,29.94,NNW,337,1.3,1.3,77,-99.99,,,0.00,459,,2013-06-04 04:07:00,
2013-06-04 06:12:00,60.6,53.2,29.94,North,0,0.8,0.8,77,-99.99,,,0.00,16,,2013-06-04 04:12:00,
2013-06-04 06:17:00,61.3,54.0,29.94,North,0,0.8,0.8,77,-99.99,,,0.00,21,,2013-06-04 04:17:00,
2013-06-04 06:22:00,63.3,55.6,29.94,NNW,337,0.0,0.0,76,-99.99,,,0.00,56,,2013-06-04 04:22:00,
2013-06-04 06:27:00,65.1,56.8,29.94,North,0,0.0,0.0,75,-99.99,,,0.00,56,,2013-06-04 04:27:00,
2013-06-04 06:32:00,65.8,57.2,29.94,North,0,0.0,0.0,74,-99.99,,,0.00,58,,2013-06-04 04:32:00,
2013-06-04 06:37:00,66.7,57.7,29.94,North,0,0.0,0.0,73,-99.99,,,0.00,52,,2013-06-04 04:37:00,
2013-06-04 06:42:00,66.0,57.0,29.94,North,0,0.0,0.0,73,-99.99,,,0.00,77,,2013-06-04 04:42:00,
2013-06-04 06:47:00,65.8,56.5,29.94,North,0,0.0,0.0,72,-99.99,,,0.00,38,,2013-06-04 04:47:00,
2013-06-04 06:52:00,69.6,59.7,29.94,North,0,0.0,0.0,71,-99.99,,,0.00,35,,2013-06-04 04:52:00,
2013-06-04 06:57:00,70.2,59.4,29.94,North,0,0.0,0.0,69,-99.99,,,0.00,114,,2013-06-04 04:57:00,
2013-06-04 07:02:00,71.4,60.6,29.94,North,0,0.0,0.0,69,0.00,,,0.00,124,,2013-06-04 05:02:00,
2013-06-04 07:07:00,73.2,61.5,29.94,North,0,0.0,0.0,67,0.00,,,0.00,136,,2013-06-04 05:07:00,
2013-06-04 07:12:00,63.9,57.2,29.94,North,0,0.0,0.0,79,0.00,,,0.00,148,,2013-06-04 05:12:00,
2013-06-04 07:17:00,64.0,57.4,29.94,North,0,0.0,0.0,79,0.00,,,0.00,159,,2013-06-04 05:17:00,
2013-06-04 07:22:00,64.0,57.4,29.94,North,0,0.0,0.0,79,0.00,,,0.00,166,,2013-06-04 05:22:00,
2013-06-04 07:27:00,64.8,57.6,29.94,North,0,0.0,0.0,78,0.00,,,0.00,175,,2013-06-04 05:27:00,
2013-06-04 07:32:00,64.8,57.6,29.94,North,0,0.0,0.0,78,0.00,,,0.00,187,,2013-06-04 05:32:00,
2013-06-04 07:37:00,64.8,57.6,29.94,NE,45,0.0,0.0,78,0.00,,,0.00,207,,2013-06-04 05:37:00,
2013-06-04 07:42:00,64.8,57.6,29.94,NE,45,0.0,0.0,78,0.00,,,0.00,237,,2013-06-04 05:42:00,
2013-06-04 07:47:00,64.8,57.6,29.94,SE,135,0.0,0.0,78,0.00,,,0.00,263,,2013-06-04 05:47:00,
2013-06-04 07:52:00,64.8,57.6,29.94,South,180,0.0,0.0,78,0.00,,,0.00,290,,2013-06-04 05:52:00,
2013-06-04 07:57:00,64.8,57.6,29.94,South,180,0.0,0.0,78,0.00,,,0.00,131,,2013-06-04 05:57:00,
2013-06-04 08:02:00,64.8,57.6,29.94,South,180,0.0,0.0,78,0.00,,,0.00,131,,2013-06-04 06:02:00,
2013-06-04 08:07:00,64.8,57.6,29.94,South,180,0.0,0.0,78,0.00,,,0.00,123,,2013-06-04 06:07:00,
2013-06-04 08:12:00,64.8,57.6,29.94,South,180,0.0,0.0,78,0.00,,,0.00,130,,2013-06-04 06:12:00,
2013-06-04 08:17:00,64.8,57.6,29.94,South,180,0.0,0.0,78,0.00,,,0.00,140,,2013-06-04 06:17:00,
2013-06-04 08:22:00,64.8,57.6,29.94,West,270,0.0,0.0,78,0.00,,,0.00,122,,2013-06-04 06:22:00,
2013-06-04 08:27:00,68.9,58.3,29.94,South,180,0.0,0.0,69,0.00,,,0.00,103,,2013-06-04 06:27:00,
2013-06-04 08:32:00,69.1,58.5,29.94,South,180,0.0,0.0,69,0.00,,,0.00,102,,2013-06-04 06:32:00,
2013-06-04 08:37:00,69.1,58.5,29.94,SSE,157,0.0,0.0,69,0.00,,,0.00,122,,2013-06-04 06:37:00,
2013-06-04 08:42:00,68.7,58.1,29.94,SE,135,0.0,0.0,69,0.00,,,0.00,134,,2013-06-04 06:42:00,
2013-06-04 08:47:00,68.7,60.4,29.94,WSW,247,0.0,0.0,75,0.00,,,0.00,106,,2013-06-04 06:47:00,
2013-06-04 08:52:00,69.3,61.0,29.94,SW,225,0.0,0.0,75,0.00,,,0.00,106,,2013-06-04 06:52:00,
2013-06-04 08:57:00,69.1,60.8,29.94,South,180,0.0,0.0,75,0.00,,,0.00,110,,2013-06-04 06:57:00,
2013-06-04 09:02:00,70.0,61.5,29.94,South,180,0.0,0.0,75,0.00,,,0.00,117,,2013-06-04 07:02:00,
2013-06-04 09:07:00,70.0,61.5,29.94,South,180,0.0,0.0,75,0.00,,,0.00,104,,2013-06-04 07:07:00,
2013-06-04 09:12:00,70.0,61.5,29.94,SSW,202,0.0,0.0,75,0.00,,,0.00,106,,2013-06-04 07:12:00,
2013-06-04 09:17:00,70.0,61.5,29.94,South,180,0.0,0.0,75,0.00,,,0.00,128,,2013-06-04 07:17:00,
2013-06-04 09:22:00,70.0,61.5,29.94,SSW,202,0.0,0.0,75,0.00,,,0.00,150,,2013-06-04 07:22:00,
2013-06-04 09:27:00,70.0,61.5,29.94,SW,225,0.0,0.0,75,0.00,,,0.00,188,,2013-06-04 07:27:00,
2013-06-04 09:32:00,74.1,64.8,29.97,SW,225,0.0,0.0,73,0.00,,,0.00,225,,2013-06-04 07:32:00,
2013-06-04 09:37:00,74.1,64.8,29.97,South,180,0.0,0.0,73,0.00,,,0.00,585,,2013-06-04 07:37:00,
2013-06-04 09:42:00,74.1,64.8,29.94,SW,225,0.0,0.0,73,0.00,,,0.00,301,,2013-06-04 07:42:00,
2013-06-04 09:47:00,73.2,63.5,29.94,South,180,0.0,0.0,72,0.00,,,0.00,181,,2013-06-04 07:47:00,
2013-06-04 09:52:00,73.2,63.5,29.94,South,180,0.0,0.0,72,0.00,,,0.00,95,,2013-06-04 07:52:00,
2013-06-04 09:57:00,73.2,63.5,29.94,South,180,0.0,0.0,72,0.00,,,0.00,104,,2013-06-04 07:57:00,
2013-06-04 10:02:00,73.2,63.5,29.94,South,180,0.0,0.0,72,0.00,,,0.00,152,,2013-06-04 08:02:00,
2013-06-04 10:07:00,73.2,63.5,29.94,WSW,247,0.0,0.0,72,0.00,,,0.00,153,,2013-06-04 08:07:00,
2013-06-04 10:12:00,73.2,63.5,29.94,South,180,0.0,0.0,72,0.00,,,0.00,223,,2013-06-04 08:12:00,
2013-06-04 10:17:00,75.4,65.7,29.94,SSW,202,0.0,0.0,72,0.00,,,0.00,230,,2013-06-04 08:17:00,
2013-06-04 10:22:00,75.4,65.7,29.94,South,180,0.0,0.0,72,0.00,,,0.00,585,,2013-06-04 08:22:00,
2013-06-04 10:27:00,75.4,65.7,29.94,South,180,0.0,0.0,72,0.00,,,0.00,557,,2013-06-04 08:27:00,
2013-06-04 10:32:00,77.9,67.6,29.94,SSE,157,0.0,0.0,71,0.00,,,0.00,595,,2013-06-04 08:32:00,
2013-06-04 10:37:00,77.9,67.6,29.94,South,180,0.4,1.3,71,0.00,,,0.00,545,,2013-06-04 08:37:00,
2013-06-04 10:42:00,77.9,67.6,29.94,South,180,0.0,0.0,71,0.00,,,0.00,260,,2013-06-04 08:42:00,
2013-06-04 10:47:00,77.9,67.6,29.94,SSE,157,0.0,0.0,71,0.00,,,0.00,154,,2013-06-04 08:47:00,
2013-06-04 10:52:00,77.9,67.6,29.97,South,180,0.0,0.0,71,0.00,,,0.00,117,,2013-06-04 08:52:00,
2013-06-04 10:57:00,77.9,67.6,29.97,South,180,0.0,0.0,71,0.00,,,0.00,184,,2013-06-04 08:57:00,
2013-06-04 11:02:00,77.9,67.6,29.94,SSE,157,0.0,0.0,71,0.00,,,0.00,257,,2013-06-04 09:02:00,
2013-06-04 11:07:00,77.9,67.6,29.94,South,180,0.4,0.0,71,0.00,,,0.00,167,,2013-06-04 09:07:00,
2013-06-04 11:12:00,77.9,67.6,29.97,South,180,0.0,1.3,71,0.00,,,0.00,159,,2013-06-04 09:12:00,
2013-06-04 11:17:00,77.9,67.6,29.97,South,180,0.0,0.0,71,0.00,,,0.00,132,,2013-06-04 09:17:00,
2013-06-04 11:22:00,77.9,67.6,29.97,SSE,157,0.0,0.0,71,0.00,,,0.00,139,,2013-06-04 09:22:00,
2013-06-04 11:27:00,77.9,67.6,29.97,South,180,0.0,1.3,71,0.00,,,0.00,132,,2013-06-04 09:27:00,
2013-06-04 11:32:00,71.2,60.1,29.97,SSE,157,0.0,0.4,68,0.00,,,0.00,110,,2013-06-04 09:32:00,
2013-06-04 11:37:00,71.6,60.4,29.97,South,180,0.4,0.0,68,0.00,,,0.00,113,,2013-06-04 09:37:00,
2013-06-04 11:42:00,71.2,60.1,29.97,South,180,0.0,0.0,68,0.00,,,0.00,105,,2013-06-04 09:42:00,
2013-06-04 11:47:00,74.5,64.4,29.97,South,180,0.0,0.0,71,0.00,,,0.00,144,,2013-06-04 09:47:00,
2013-06-04 11:52:00,76.1,65.8,29.97,South,180,0.0,1.3,71,0.00,,,0.00,162,,2013-06-04 09:52:00,
2013-06-04 11:57:00,76.3,66.0,29.97,SSE,157,0.4,0.8,71,0.00,,,0.00,150,,2013-06-04 09:57:00,
2013-06-04 12:02:00,76.3,66.0,29.94,South,180,0.4,0.0,71,0.00,,,0.00,148,,2013-06-04 10:02:00,
2013-06-04 12:07:00,76.3,66.0,29.94,South,180,0.4,0.0,71,0.00,,,0.00,140,,2013-06-04 10:07:00,
2013-06-04 12:12:00,76.3,66.0,29.94,SSW,202,0.0,0.8,71,0.00,,,0.00,108,,2013-06-04 10:12:00,
2013-06-04 12:17:00,76.3,66.0,29.94,SW,225,0.0,0.4,71,0.00,,,0.00,127,,2013-06-04 10:17:00,
2013-06-04 12:22:00,79.0,68.2,29.94,ESE,112,0.4,0.8,70,0.00,,,0.00,148,,2013-06-04 10:22:00,
2013-06-04 12:27:00,77.9,67.3,29.94,SSE,157,1.3,2.2,70,0.00,,,0.00,162,,2013-06-04 10:27:00,
2013-06-04 12:32:00,78.6,68.0,29.94,SSW,202,0.0,1.3,70,0.00,,,0.00,164,,2013-06-04 10:32:00,
2013-06-04 12:37:00,78.6,68.0,29.94,SE,135,0.8,1.3,70,0.00,,,0.00,175,,2013-06-04 10:37:00,
2013-06-04 12:42:00,78.6,68.0,29.94,South,180,0.4,0.0,70,0.00,,,0.00,157,,2013-06-04 10:42:00,
2013-06-04 12:47:00,78.6,68.0,29.94,SSE,157,0.8,1.3,70,0.00,,,0.00,150,,2013-06-04 10:47:00,
2013-06-04 12:52:00,78.6,68.0,29.94,South,180,0.0,0.4,70,0.00,,,0.00,142,,2013-06-04 10:52:00,
2013-06-04 12:57:00,74.1,64.4,29.94,South,180,0.0,0.8,72,0.00,,,0.00,132,,2013-06-04 10:57:00,
2013-06-04 13:02:00,74.1,64.4,29.94,SSE,157,0.4,0.4,72,0.00,,,0.00,125,,2013-06-04 11:02:00,
2013-06-04 13:07:00,74.1,64.4,29.94,SSE,157,0.0,0.0,72,0.00,,,0.00,125,,2013-06-04 11:07:00,
2013-06-04 13:12:00,74.1,64.4,29.94,South,180,0.4,0.8,72,0.00,,,0.00,138,,2013-06-04 11:12:00,
2013-06-04 13:17:00,74.1,64.4,29.94,SW,225,0.4,0.8,72,0.00,,,0.00,134,,2013-06-04 11:17:00,
2013-06-04 13:22:00,74.1,64.4,29.94,SW,225,0.4,0.0,72,0.00,,,0.00,125,,2013-06-04 11:22:00,
2013-06-04 13:27:00,74.1,64.4,29.94,SSE,157,0.0,0.0,72,0.00,,,0.00,117,,2013-06-04 11:27:00,
2013-06-04 13:32:00,74.1,64.4,29.94,South,180,0.0,0.4,72,0.00,,,0.00,123,,2013-06-04 11:32:00,
2013-06-04 13:37:00,74.1,64.4,29.94,SSW,202,0.4,2.2,72,0.00,,,0.00,136,,2013-06-04 11:37:00,
2013-06-04 13:42:00,74.1,64.4,29.94,SSW,202,0.0,0.0,72,0.00,,,0.00,126,,2013-06-04 11:42:00,
2013-06-04 13:47:00,73.8,64.0,29.94,South,180,0.0,0.0,72,0.00,,,0.00,94,,2013-06-04 11:47:00,
2013-06-04 13:52:00,73.6,63.9,29.94,South,180,0.4,0.0,72,0.00,,,0.00,101,,2013-06-04 11:52:00,
2013-06-04 13:57:00,73.6,63.9,29.94,SSW,202,0.0,0.0,72,0.00,,,0.00,92,,2013-06-04 11:57:00,
2013-06-04 14:02:00,73.6,63.9,29.94,South,180,0.4,2.2,72,0.00,,,0.00,89,,2013-06-04 12:02:00,
2013-06-04 14:07:00,73.6,63.9,29.94,SSW,202,0.8,1.7,72,0.00,,,0.00,74,,2013-06-04 12:07:00,
2013-06-04 14:12:00,72.9,63.7,29.94,SSE,157,0.0,0.4,73,0.00,,,0.00,61,,2013-06-04 12:12:00,
2013-06-04 14:17:00,72.9,63.7,29.94,South,180,0.4,0.4,73,0.00,,,0.00,55,,2013-06-04 12:17:00,
2013-06-04 14:22:00,72.9,63.7,29.94,South,180,0.0,0.0,73,0.00,,,0.00,56,,2013-06-04 12:22:00,
2013-06-04 14:27:00,72.9,63.7,29.94,South,180,0.4,1.3,73,0.00,,,0.00,81,,2013-06-04 12:27:00,
2013-06-04 14:32:00,72.9,63.7,29.94,SW,225,0.4,0.0,73,0.00,,,0.00,95,,2013-06-04 12:32:00,
2013-06-04 14:37:00,72.9,63.7,29.94,South,180,0.0,0.0,73,0.00,,,0.00,106,,2013-06-04 12:37:00,
2013-06-04 14:42:00,72.9,63.7,29.94,South,180,0.8,1.3,73,0.00,,,0.00,100,,2013-06-04 12:42:00,
2013-06-04 14:47:00,72.9,63.7,29.94,South,180,0.4,1.3,73,0.00,,,0.00,90,,2013-06-04 12:47:00,
2013-06-04 14:52:00,72.9,63.7,29.94,South,180,0.4,0.0,73,0.00,,,0.00,90,,2013-06-04 12:52:00,
2013-06-04 14:57:00,72.9,63.7,29.94,South,180,0.4,0.4,73,0.00,,,0.00,84,,2013-06-04 12:57:00,
2013-06-04 15:02:00,72.9,63.7,29.94,South,180,0.4,0.4,73,0.00,,,0.00,92,,2013-06-04 13:02:00,
2013-06-04 15:07:00,72.9,63.7,29.94,South,180,0.8,1.7,73,0.00,,,0.00,94,,2013-06-04 13:07:00,
2013-06-04 15:12:00,74.3,62.1,29.94,South,180,0.4,0.0,66,0.00,,,0.00,92,,2013-06-04 13:12:00,
2013-06-04 15:17:00,74.8,62.6,29.94,SSE,157,0.4,0.8,66,0.00,,,0.00,88,,2013-06-04 13:17:00,
2013-06-04 15:22:00,75.7,63.5,29.94,South,180,0.4,0.8,66,0.00,,,0.00,86,,2013-06-04 13:22:00,
2013-06-04 15:27:00,74.8,64.8,29.94,SSE,157,0.4,0.0,71,0.00,,,0.00,88,,2013-06-04 13:27:00,
2013-06-04 15:32:00,75.9,65.3,29.94,SSE,157,0.4,0.8,70,0.00,,,0.00,97,,2013-06-04 13:32:00,
2013-06-04 15:37:00,75.9,65.3,29.94,SE,135,0.0,0.0,70,0.00,,,0.00,103,,2013-06-04 13:37:00,
2013-06-04 15:42:00,75.9,65.3,29.94,NNW,337,0.4,0.0,70,0.00,,,0.00,109,,2013-06-04 13:42:00,
2013-06-04 15:47:00,75.9,65.3,29.94,SSW,202,0.8,2.2,70,0.00,,,0.00,119,,2013-06-04 13:47:00,
2013-06-04 15:52:00,75.9,65.3,29.94,East,90,0.4,0.0,70,0.00,,,0.00,133,,2013-06-04 13:52:00,
2013-06-04 15:57:00,76.5,65.8,29.94,SSW,202,0.0,0.0,70,0.00,,,0.00,143,,2013-06-04 13:57:00,
2013-06-04 16:02:00,76.8,66.2,29.94,West,270,0.0,0.8,70,0.00,,,0.00,143,,2013-06-04 14:02:00,
2013-06-04 16:07:00,77.0,66.4,29.94,South,180,0.0,0.4,70,0.00,,,0.00,143,,2013-06-04 14:07:00,
2013-06-04 16:12:00,77.0,66.4,29.94,SW,225,0.4,1.3,70,0.00,,,0.00,143,,2013-06-04 14:12:00,
2013-06-04 16:17:00,77.0,66.4,29.94,South,180,0.0,0.0,70,0.00,,,0.00,,,2013-06-04 14:17:00,
2013-06-04 16:22:00,77.0,66.4,29.94,WSW,247,0.0,0.0,70,0.00,,,0.00,,,2013-06-04 14:22:00,
2013-06-04 16:27:00,77.0,66.4,29.94,SSE,157,0.4,0.4,70,0.00,,,0.00,,,2013-06-04 14:27:00,
2013-06-04 16:32:00,77.0,66.4,29.94,SE,135,0.0,0.0,70,0.00,,,0.00,,,2013-06-04 14:32:00,
2013-06-04 16:37:00,75.7,65.1,29.94,SSE,157,0.4,2.2,70,0.00,,,0.00,,,2013-06-04 14:37:00,
2013-06-04 16:42:00,75.7,65.1,29.94,South,180,0.4,0.8,70,0.00,,,0.00,,,2013-06-04 14:42:00,
2013-06-04 16:47:00,75.7,65.1,29.94,South,180,1.3,1.3,70,0.00,,,0.00,,,2013-06-04 14:47:00,
2013-06-04 16:52:00,75.7,65.1,29.94,South,180,0.8,0.8,70,0.00,,,0.00,,,2013-06-04 14:52:00,
2013-06-04 16:57:00,75.7,65.1,29.94,SSE,157,0.0,0.4,70,0.00,,,0.00,,,2013-06-04 14:57:00,
2013-06-04 17:02:00,75.7,65.1,29.94,SSE,157,0.0,0.4,70,0.00,,,0.00,,,2013-06-04 15:02:00,
2013-06-04 17:07:00,75.7,65.1,29.94,SSW,202,0.4,0.0,70,0.00,,,0.00,,,2013-06-04 15:07:00,
2013-06-04 17:12:00,75.7,65.1,29.94,West,270,0.8,1.7,70,0.00,,,0.00,,,2013-06-04 15:12:00,
2013-06-04 17:17:00,75.7,65.1,29.94,WNW,292,3.5,7.6,70,0.00,,,0.00,,,2013-06-04 15:17:00,
2013-06-04 17:22:00,75.7,65.1,29.94,West,270,1.3,5.8,70,0.00,,,0.00,,,2013-06-04 15:22:00,
2013-06-04 17:27:00,75.7,65.1,29.94,West,270,0.4,0.4,70,0.00,,,0.00,,,2013-06-04 15:27:00,
2013-06-04 17:32:00,72.5,62.8,29.94,West,270,1.3,1.3,72,0.00,,,0.00,,,2013-06-04 15:32:00,
2013-06-04 17:37:00,73.4,63.7,29.94,WSW,247,0.4,1.7,72,0.00,,,0.00,,,2013-06-04 15:37:00,
2013-06-04 17:42:00,73.4,63.7,29.94,NW,315,0.8,1.7,72,0.00,,,0.00,,,2013-06-04 15:42:00,
2013-06-04 17:47:00,73.4,63.7,29.94,SSE,157,0.8,3.1,72,0.00,,,0.00,,,2013-06-04 15:47:00,
2013-06-04 17:52:00,68.7,59.5,29.97,ENE,67,1.3,2.6,73,0.00,,,0.00,,,2013-06-04 15:52:00,
2013-06-04 17:57:00,68.7,59.5,29.97,SSE,157,7.6,8.5,73,0.00,,,0.00,,,2013-06-04 15:57:00,
2013-06-04 18:02:00,68.7,59.5,29.97,SSE,157,3.5,7.6,73,0.00,,,0.00,,,2013-06-04 16:02:00,
2013-06-04 18:07:00,68.7,59.5,29.97,East,90,3.1,9.8,73,0.00,,,0.00,,,2013-06-04 16:07:00,
2013-06-04 18:12:00,67.3,58.6,29.97,East,90,2.2,2.2,74,0.00,,,0.00,,,2013-06-04 16:12:00,
2013-06-04 18:18:00,68.4,59.7,29.97,East,90,1.3,2.2,74,0.00,,,0.00,,,2013-06-04 16:18:00,
2013-06-04 18:22:00,68.5,59.4,29.97,ESE,112,0.0,0.0,73,0.00,,,0.00,,,2013-06-04 16:22:00,
2013-06-04 18:28:00,69.1,59.9,29.97,SSE,157,0.0,0.4,73,0.00,,,0.00,,,2013-06-04 16:28:00,
2013-06-04 18:33:00,69.1,59.9,29.94,WSW,247,0.0,0.4,73,0.00,,,0.00,,,2013-06-04 16:33:00,
2013-06-04 18:38:00,70.0,60.8,29.94,ESE,112,0.0,0.0,73,0.00,,,0.00,,,2013-06-04 16:38:00,
2013-06-04 18:43:00,69.4,60.3,29.94,ESE,112,0.0,0.0,73,0.00,,,0.00,,,2013-06-04 16:43:00,
2013-06-04 18:48:00,69.6,60.4,29.94,SSE,157,1.7,0.0,73,0.00,,,0.00,,,2013-06-04 16:48:00,
2013-06-04 18:53:00,69.6,60.4,29.94,South,180,0.8,2.2,73,0.00,,,0.00,,,2013-06-04 16:53:00,
2013-06-04 18:58:00,69.6,60.4,29.94,South,180,0.8,2.2,73,0.00,,,0.00,,,2013-06-04 16:58:00,
2013-06-04 19:03:00,70.0,60.8,29.94,SE,135,0.8,2.6,73,0.00,,,0.00,,,2013-06-04 17:03:00,
2013-06-04 19:08:00,69.6,60.4,29.94,South,180,0.4,0.8,73,0.00,,,0.00,,,2013-06-04 17:08:00,
2013-06-04 19:13:00,69.6,60.4,29.94,South,180,0.0,0.0,73,0.00,,,0.00,,,2013-06-04 17:13:00,
2013-06-04 19:18:00,69.6,60.4,29.94,South,180,0.0,0.0,73,0.00,,,0.00,,,2013-06-04 17:18:00,
2013-06-04 19:23:00,69.6,60.4,29.94,NW,315,0.0,0.0,73,0.00,,,0.00,,,2013-06-04 17:23:00,
2013-06-04 19:28:00,69.4,60.3,29.94,NW,315,0.0,0.0,73,0.00,,,0.00,,,2013-06-04 17:28:00,
2013-06-04 19:33:00,69.6,60.4,29.97,NW,315,0.0,0.0,73,0.00,,,0.00,,,2013-06-04 17:33:00,
2013-06-04 19:38:00,70.0,60.8,29.97,NW,315,0.0,0.0,73,0.00,,,0.00,,,2013-06-04 17:38:00,
2013-06-04 19:43:00,70.0,60.8,29.97,West,270,0.0,0.0,73,0.00,,,0.00,,,2013-06-04 17:43:00,
2013-06-04 19:48:00,70.0,60.8,29.97,West,270,0.0,0.0,73,0.00,,,0.00,,,2013-06-04 17:48:00,
2013-06-04 19:53:00,70.0,60.8,29.94,West,270,0.0,0.0,73,0.00,,,0.00,,,2013-06-04 17:53:00,
2013-06-04 19:58:00,68.7,60.1,29.94,West,270,0.0,0.0,74,0.00,,,0.00,,,2013-06-04 17:58:00,
2013-06-04 20:03:00,68.5,59.9,29.97,West,270,0.0,0.0,74,0.00,,,0.00,13,,2013-06-04 18:03:00,
2013-06-04 20:08:00,68.4,59.7,29.97,South,180,0.0,0.0,74,0.00,,,0.00,10,,2013-06-04 18:08:00,
2013-06-04 20:13:00,68.2,59.5,29.97,South,180,0.4,0.8,74,0.00,,,0.00,7,,2013-06-04 18:13:00,
2013-06-04 20:18:00,68.2,59.5,29.97,South,180,0.0,0.8,74,0.00,,,0.00,5,,2013-06-04 18:18:00,
2013-06-04 20:23:00,67.3,58.6,29.94,South,180,1.7,3.1,74,0.00,,,0.00,4,,2013-06-04 18:23:00,
2013-06-04 20:28:00,66.9,58.3,29.94,South,180,0.0,0.0,74,0.00,,,0.00,3,,2013-06-04 18:28:00,
2013-06-04 20:33:00,66.9,58.3,29.97,South,180,0.0,0.0,74,0.00,,,0.00,3,,2013-06-04 18:33:00,
2013-06-04 20:38:00,67.1,58.8,29.97,West,270,0.0,0.0,75,0.00,,,0.00,2,,2013-06-04 18:38:00,
2013-06-04 20:43:00,67.1,58.8,29.97,NW,315,0.4,0.8,75,0.00,,,0.00,1,,2013-06-04 18:43:00,
2013-06-04 20:48:00,67.1,58.8,29.97,NW,315,0.4,2.2,75,0.00,,,0.00,1,,2013-06-04 18:48:00,
2013-06-04 20:53:00,67.1,58.8,29.97,NW,315,0.0,1.7,75,0.00,,,0.00,1,,2013-06-04 18:53:00,
2013-06-04 20:58:00,67.1,58.8,29.97,North,0,0.0,0.0,75,0.00,,,0.00,0,,2013-06-04 18:58:00,
2013-06-04 21:03:00,67.1,58.8,29.97,NW,315,0.0,0.0,75,0.00,,,0.00,0,,2013-06-04 19:03:00,
2013-06-04 21:08:00,66.4,58.5,29.97,NNW,337,0.0,0.0,76,0.00,,,0.00,4,,2013-06-04 19:08:00,
2013-06-04 21:13:00,66.4,58.5,29.97,NNW,337,3.5,4.4,76,0.00,,,0.00,0,,2013-06-04 19:13:00,
2013-06-04 21:18:00,65.8,57.9,29.97,NNW,337,0.4,1.3,76,0.00,,,0.00,0,,2013-06-04 19:18:00,
2013-06-04 21:23:00,65.8,57.9,29.97,NNW,337,0.4,2.6,76,0.00,,,0.00,0,,2013-06-04 19:23:00,
2013-06-04 21:28:00,65.8,57.9,29.97,North,0,0.4,0.0,76,0.00,,,0.00,0,,2013-06-04 19:28:00,
2013-06-04 21:33:00,65.7,58.1,29.97,NW,315,0.4,0.8,77,0.00,,,0.00,0,,2013-06-04 19:33:00,
2013-06-04 21:38:00,65.7,58.1,29.97,NW,315,2.2,3.1,77,0.00,,,0.00,0,,2013-06-04 19:38:00,
2013-06-04 21:43:00,65.5,57.9,29.97,NNW,337,2.2,2.2,77,0.00,,,0.00,0,,2013-06-04 19:43:00,
2013-06-04 21:48:00,65.1,57.6,29.97,NNW,337,0.4,0.4,77,0.00,,,0.00,0,,2013-06-04 19:48:00,
2013-06-04 21:58:00,64.8,57.6,29.97,North,0,0.8,0.0,78,0.00,,,0.00,0,,2013-06-04 19:58:00,
2013-06-04 22:03:00,64.8,57.6,29.97,North,0,0.0,0.8,78,0.00,,,0.00,0,,2013-06-04 20:03:00,
2013-06-04 22:08:00,64.8,57.6,29.97,East,90,0.0,0.0,78,0.00,,,0.00,0,,2013-06-04 20:08:00,
2013-06-04 22:13:00,64.8,57.6,30.00,North,0,0.0,0.0,78,0.00,,,0.00,0,,2013-06-04 20:13:00,
2013-06-04 22:18:00,64.2,57.6,30.00,East,90,0.0,0.0,79,0.00,,,0.00,0,,2013-06-04 20:18:00,
2013-06-04 22:23:00,64.6,57.7,29.97,NNW,337,0.0,0.0,79,0.00,,,0.00,,,2013-06-04 20:23:00,
2013-06-04 22:28:00,64.6,57.7,29.97,NW,315,0.0,0.0,79,0.00,,,0.00,,,2013-06-04 20:28:00,
2013-06-04 22:33:00,64.6,57.7,30.00,NW,315,0.0,0.0,79,0.00,,,0.00,,,2013-06-04 20:33:00,
2013-06-04 22:38:00,64.6,57.7,30.00,NW,315,0.0,0.0,79,0.00,,,0.00,,,2013-06-04 20:38:00,
2013-06-04 22:43:00,64.0,57.4,30.00,NW,315,0.0,0.0,79,0.00,,,0.00,,,2013-06-04 20:43:00,
2013-06-04 22:48:00,64.0,57.4,30.00,NW,315,0.0,0.0,79,0.00,,,0.00,,,2013-06-04 20:48:00,
2013-06-04 22:53:00,63.9,57.2,30.00,NW,315,0.0,0.0,79,0.00,,,0.00,,,2013-06-04 20:53:00,
2013-06-04 22:58:00,63.9,57.2,30.00,North,0,0.0,0.0,79,0.00,,,0.00,,,2013-06-04 20:58:00,
2013-06-04 23:03:00,63.9,57.2,30.00,NNW,337,0.0,0.0,79,0.00,,,0.00,,,2013-06-04 21:03:00,
2013-06-04 23:08:00,63.7,57.0,30.00,NNW,337,0.0,0.0,79,0.00,,,0.00,,,2013-06-04 21:08:00,
2013-06-04 23:13:00,63.5,56.8,30.00,NW,315,0.0,1.7,79,0.00,,,0.00,,,2013-06-04 21:13:00,
2013-06-04 23:18:00,63.5,56.8,30.00,NW,315,0.8,0.0,79,0.00,,,0.00,,,2013-06-04 21:18:00,
2013-06-04 23:23:00,63.5,56.8,30.00,NW,315,0.8,0.0,79,0.00,,,0.00,,,2013-06-04 21:23:00,
2013-06-04 23:28:00,63.5,56.8,30.00,NW,315,0.8,0.0,79,0.00,,,0.00,,,2013-06-04 21:28:00,
2013-06-04 23:33:00,63.5,56.8,30.00,NW,315,2.2,2.6,79,0.00,,,0.00,,,2013-06-04 21:33:00,
2013-06-04 23:38:00,63.5,56.8,30.00,NW,315,1.3,2.6,79,0.00,,,0.00,,,2013-06-04 21:38:00,
2013-06-04 23:43:00,63.5,56.8,30.00,NW,315,0.4,0.0,79,0.00,,,0.00,,,2013-06-04 21:43:00,
2013-06-04 23:48:00,63.5,56.8,30.00,NW,315,0.0,0.0,79,0.00,,,0.00,,,2013-06-04 21:48:00,
2013-06-04 23:53:00,63.3,57.0,30.00,NW,315,0.0,0.0,80,0.00,,,0.00,,,2013-06-04 21:53:00,
2013-06-04 23:58:00,63.1,56.8,30.00,NW,315,0.4,0.0,80,0.00,,,0.00,,,2013-06-04 21:58:00,